CAPE
0 0 0 0 0 0 0 0 0 0 0 0 0 0 0 0 0 0 3 44 32 16 20 16 8 12 13 10 13 7 8 13 11 12 12 11 7 7 6 7 7 6 9
0 0 0 0 0 0 0 0 0 0 0 0 0 0 0 0 0 0 0 8 35 20 15 7 12 8 9 9 4 8 2 10 9 8 8 5 6 7 3 3 4 6 5
0 0 0 0 0 0 0 0 0 0 0 0 0 0 0 0 0 0 0 0 1 6 6 7 5 9 9 4 5 5 4 8 6 7 4 5 4 3 1 2 4 4 5
0 0 0 0 0 0 0 0 0 0 0 0 0 0 0 0 0 0 0 0 0 0 1 10 9 5 6 5 6 6 8 7 7 7 4 4 0 1 3 1 1 0 2
0 0 0 0 0 0 0 0 0 0 0 0 0 0 0 0 0 0 0 0 0 0 0 1 5 9 10 3 6 5 9 8 4 7 4 3 1 1 1 1 1 1 1
0 0 0 0 0 0 0 0 0 0 0 0 0 0 0 0 0 0 0 0 0 0 0 0 0 0 4 6 6 7 8 10 10 8 6 5 2 2 1 1 0 0 0
0 0 0 0 0 0 0 0 0 0 0 0 0 0 0 0 0 0 0 0 0 0 0 0 0 0 0 18 0 4 6 13 9 9 7 6 3 2 1 2 2 0 0
0 0 0 0 0 0 0 0 0 0 0 0 0 0 0 0 0 0 0 0 0 0 0 0 0 0 0 0 0 3 5 7 12 11 11 7 3 4 3 3 2 1 0
0 0 0 0 0 0 0 0 0 0 0 0 0 0 0 0 0 0 0 0 0 0 0 0 0 0 0 0 0 0 9 9 11 7 9 9 6 5 5 4 4 3 2
0 0 0 0 0 0 0 0 0 0 0 0 0 0 0 0 0 0 0 0 0 0 0 0 0 0 0 0 0 0 0 0 1 0 7 8 9 6 6 9 6 6 5
0 0 0 0 0 0 0 0 0 0 0 0 0 0 0 0 0 0 0 0 0 0 0 0 0 0 0 0 0 0 0 0 0 0 0 4 7 12 7 10 10 10 8
0 0 0 0 0 0 0 0 0 0 0 0 0 0 0 0 0 0 0 0 0 0 0 0 0 0 0 0 0 0 0 0 0 0 0 0 0 6 9 11 12 12 10
0 0 0 0 0 0 0 0 0 0 0 0 0 0 0 0 0 0 0 0 0 0 0 0 0 0 0 0 0 0 0 0 0 0 0 0 0 0 6 7 9 12 12
3 0 7 0 0 0 0 0 0 0 0 0 0 0 0 0 0 0 0 0 0 0 0 0 0 0 0 0 0 0 0 0 0 0 0 0 0 0 0 2 6 9 10
3 0 0 7 0 0 0 0 0 0 0 0 0 0 0 0 0 0 0 0 0 0 0 0 0 0 0 0 0 0 0 0 0 0 0 0 0 0 0 0 0 3 14
35 0 0 2 8 0 0 0 0 0 0 0 0 0 0 0 0 0 0 0 0 0 0 0 0 0 0 0 0 0 0 0 0 0 0 0 0 0 0 0 0 0 0
87 64 4 0 0 0 0 0 0 0 0 0 0 0 0 0 0 0 0 0 0 0 0 0 0 0 0 0 0 0 0 0 0 0 0 0 0 0 0 0 0 0 0
8 94 111 24 8 15 1 1 0 0 0 0 0 0 0 0 0 0 0 0 0 0 0 0 0 0 0 0 0 0 0 0 0 0 0 0 0 0 0 0 0 0 0
68 5 28 157 46 18 35 13 2 0 0 0 0 0 0 0 0 0 0 0 0 0 0 0 0 0 0 0 0 0 0 0 0 0 0 0 0 0 0 0 0 0 0
9 29 14 67 217 175 145 143 93 27 4 0 0 0 0 0 0 0 0 0 0 0 0 0 0 0 0 0 0 0 0 0 0 0 0 0 0 0 0 0 0 0 0
0 123 161 14 20 122 220 240 190 114 53 16 0 0 0 0 0 0 0 0 0 0 0 0 0 0 0 0 0 0 0 0 0 0 0 0 0 0 0 0 0 0 0
0 0 65 115 38 10 54 69 113 199 121 54 30 14 0 0 0 0 0 0 0 0 1 1 0 0 0 0 0 0 0 0 0 0 0 0 0 0 0 0 0 0 0
0 0 0 66 97 79 88 0 2 24 164 153 82 48 5 0 0 0 0 1 1 0 0 0 1 0 0 0 0 0 0 0 0 0 0 0 0 0 0 0 0 0 0
1 3 1 15 50 87 174 0 1 0 7 66 122 81 42 22 6 0 0 0 0 0 0 0 0 0 0 0 0 0 0 0 0 0 0 0 0 0 0 0 0 0 0
2 2 47 100 63 132 17 1 0 0 0 0 54 160 177 98 56 0 0 0 0 0 0 0 0 0 0 0 0 0 0 0 0 0 0 0 0 0 0 0 0 0 0
2 3 32 0 0 1 0 0 0 2 1 1 5 60 86 7 129 0 0 0 0 0 0 0 0 0 0 0 0 0 0 0 0 0 0 0 0 0 0 0 0 0 0
CIN
-0 -0 -0 -0 -0 -0 -0 -0 -0 -0 -0 -0 -0 -0 -0 -0 -0 -0 -18 -5 -1 -0 -0 -0 -0 -0 -0 -0 -0 -0 -0 -0 -0 -0 -0 -0 -0 -0 -0 -0 -0 -0 -0
-0 -0 -0 -0 -0 -0 -0 -0 -0 -0 -0 -0 -0 -0 -0 -0 -0 -0 -0 -13 -5 -1 -0 -0 -0 -0 -0 -0 -0 -0 -0 -0 -0 -0 -0 -0 -0 -0 -0 -0 -0 -0 -0
-0 -0 -0 -0 -0 -0 -0 -0 -0 -0 -0 -0 -0 -0 -0 -0 -0 -0 -0 -0 -1 -2 -1 -0 -0 -0 -0 -0 -0 -0 -0 -0 -0 -0 -0 -0 -0 -0 -0 -0 -0 -0 -0
-0 -0 -0 -0 -0 -0 -0 -0 -0 -0 -0 -0 -0 -0 -0 -0 -0 -0 -0 -0 -0 -0 -0 -2 -0 -0 -0 -0 -0 -0 -0 -0 -0 -0 -0 -0 -0 -0 -0 -0 -0 -0 -0
-0 -0 -0 -0 -0 -0 -0 -0 -0 -0 -0 -0 -0 -0 -0 -0 -0 -0 -0 -0 -0 -0 -0 -1 -1 -0 -0 -0 -0 -0 -0 -0 -0 -0 -0 -0 -0 -0 -0 -0 -0 -0 -0
-0 -0 -0 -0 -0 -0 -0 -0 -0 -0 -0 -0 -0 -0 -0 -0 -0 -0 -0 -0 -0 -0 -0 -0 -0 -0 -3 -0 -0 -0 -0 -0 -0 -0 -0 -0 -0 -0 -0 -0 -0 -0 -0
-0 -0 -0 -0 -0 -0 -0 -0 -0 -0 -0 -0 -0 -0 -0 -0 -0 -0 -0 -0 -0 -0 -0 -0 -0 -0 -0 -0 -0 -0 -0 -0 -0 -0 -0 -0 -0 -0 -0 -0 -0 -0 -0
-0 -0 -0 -0 -0 -0 -0 -0 -0 -0 -0 -0 -0 -0 -0 -0 -0 -0 -0 -0 -0 -0 -0 -0 -0 -0 -0 -0 -0 -0 -0 -0 -0 -0 -0 -0 -0 -0 -0 -0 -0 -0 -0
-0 -0 -0 -0 -0 -0 -0 -0 -0 -0 -0 -0 -0 -0 -0 -0 -0 -0 -0 -0 -0 -0 -0 -0 -0 -0 -0 -0 -0 -0 -5 -6 -0 -0 -0 -0 -0 -0 -0 -0 -0 -0 -0
-0 -0 -0 -0 -0 -0 -0 -0 -0 -0 -0 -0 -0 -0 -0 -0 -0 -0 -0 -0 -0 -0 -0 -0 -0 -0 -0 -0 -0 -0 -0 -0 -0 -0 -0 -0 -0 -0 -0 -0 -0 -0 -0
-0 -0 -0 -0 -0 -0 -0 -0 -0 -0 -0 -0 -0 -0 -0 -0 -0 -0 -0 -0 -0 -0 -0 -0 -0 -0 -0 -0 -0 -0 -0 -0 -0 -0 -0 -0 -0 -0 -0 -0 -0 -0 -0
-16 -0 -0 -0 -0 -0 -0 -0 -0 -0 -0 -0 -0 -0 -0 -0 -0 -0 -0 -0 -0 -0 -0 -0 -0 -0 -0 -0 -0 -0 -0 -0 -0 -0 -0 -0 -0 -0 -0 -0 -0 -0 -0
-53 -0 -0 -0 -0 -0 -0 -0 -0 -0 -0 -0 -0 -0 -0 -0 -0 -0 -0 -0 -0 -0 -0 -0 -0 -0 -0 -0 -0 -0 -0 -0 -0 -0 -0 -0 -0 -0 -0 -0 -0 -0 -0
-236 -0 -167 -61 -0 -0 -0 -0 -0 -0 -0 -0 -0 -0 -0 -0 -0 -0 -0 -0 -0 -0 -0 -0 -0 -0 -0 -0 -0 -0 -0 -0 -0 -0 -0 -0 -0 -0 -0 -0 -0 -0 -0
-227 -0 -0 -174 -0 -0 -0 -0 -0 -0 -0 -0 -0 -0 -0 -0 -0 -0 -0 -0 -0 -0 -0 -0 -0 -0 -0 -0 -0 -0 -0 -0 -0 -0 -0 -0 -0 -0 -0 -0 -0 -0 -0
-176 -0 -0 -66 -155 -0 -0 -0 -0 -0 -0 -0 -0 -0 -0 -0 -0 -0 -0 -0 -0 -0 -0 -0 -0 -0 -0 -0 -0 -0 -0 -0 -0 -0 -0 -0 -0 -0 -0 -0 -0 -0 -0
-78 -82 -119 -0 -0 -0 -54 -106 -0 -0 -0 -0 -0 -0 -0 -0 -0 -0 -0 -0 -0 -0 -0 -0 -0 -0 -0 -0 -0 -0 -0 -0 -0 -0 -0 -0 -0 -0 -0 -0 -0 -0 -0
-177 -44 -59 -97 -136 -117 -59 -51 -0 -0 -0 -0 -0 -0 -0 -0 -0 -0 -0 -0 -0 -0 -0 -0 -0 -0 -0 -0 -0 -0 -0 -0 -0 -0 -0 -0 -0 -0 -0 -0 -0 -0 -0
-62 -182 -102 -14 -73 -76 -56 -65 -69 -0 -0 -0 -0 -0 -0 -0 -0 -0 -0 -0 -0 -0 -0 -0 -0 -0 -0 -0 -0 -0 -0 -0 -0 -0 -0 -0 -0 -0 -0 -0 -0 -0 -0
-38 -83 -169 -59 -10 -28 -33 -32 -38 -64 -38 -0 -0 -0 -0 -0 -0 -0 -0 -0 -0 -0 -0 -0 -0 -0 -0 -0 -0 -0 -0 -0 -0 -0 -0 -0 -0 -0 -0 -0 -0 -0 -0
-0 -33 -23 -172 -139 -30 -20 -14 -15 -27 -42 -63 -1 -0 -0 -0 -0 -0 -18 -0 -0 -0 -0 -0 -1 -0 -0 -0 -0 -0 -0 -0 -0 -0 -0 -0 -0 -0 -0 -0 -0 -0 -0
-0 -0 -65 -72 -139 -172 -138 -93 -63 -23 -21 -45 -58 -75 -1 -0 -0 -0 -0 -0 -0 -0 -0 -0 -1 -0 -0 -0 -0 -0 -0 -0 -0 -0 -0 -0 -0 -0 -0 -0 -0 -0 -0
-0 -0 -0 -127 -85 -100 -132 -0 -0 -118 -38 -31 -30 -48 -81 -0 -0 -0 -0 -0 -0 -0 -0 -0 -0 -0 -0 -0 -0 -0 -0 -0 -0 -0 -0 -0 -0 -0 -0 -0 -0 -0 -0
-0 -0 -0 -162 -134 -112 -84 -65 -0 -0 -168 -80 -16 -25 -81 -104 -98 -0 -0 -0 -0 -0 -0 -0 -0 -0 -0 -0 -0 -0 -0 -0 -0 -0 -0 -0 -0 -0 -0 -0 -0 -0 -0
-0 -0 -126 -47 -69 -81 -15 -0 -0 -0 -0 -0 -104 -7 -5 -38 -77 -0 -0 -0 -0 -0 -0 -0 -0 -0 -0 -0 -0 -0 -0 -0 -0 -0 -0 -0 -0 -0 -0 -0 -0 -0 -0
-0 -0 -81 -0 -0 -0 -0 -0 -0 -0 -0 -0 -209 -106 -79 -153 -47 -0 -0 -0 -0 -0 -0 -13 -0 -0 -0 -0 -0 -0 -0 -0 -0 -0 -0 -0 -0 -0 -0 -0 -0 -0 -0
Wind_Speed
4 3 4 4 4 3 4 4 5 7 6 6 5 6 5 5 5 3 2 9 10 12 11 14 11 12 12 10 10 8 9 9 10 10 9 10 10 11 10 11 10 10 11
5 4 4 4 4 4 3 4 7 8 6 6 6 5 5 4 4 4 3 4 10 9 10 9 12 10 10 10 8 8 7 8 8 9 8 9 8 9 9 8 8 9 9
6 6 5 4 4 3 4 5 4 6 6 4 6 5 5 5 4 5 4 3 4 7 6 8 7 9 10 9 7 5 6 6 5 6 7 8 7 6 7 6 7 7 8
8 7 6 5 4 4 3 5 7 6 5 6 4 4 4 3 4 4 3 3 3 2 3 7 7 8 9 8 7 7 6 5 5 6 6 6 6 4 4 4 5 4 6
8 8 7 6 5 4 4 5 2 8 6 4 5 4 3 3 4 3 4 4 4 4 3 6 6 6 8 8 8 8 7 7 7 5 5 5 5 4 4 3 3 3 3
10 7 6 6 6 4 5 3 6 2 5 7 5 4 1 2 3 4 5 3 4 5 5 4 4 4 8 9 10 10 9 9 8 8 7 7 7 5 4 3 3 2 1
11 9 5 6 7 8 9 8 4 5 2 3 5 3 2 2 4 4 3 4 5 5 5 5 4 3 3 8 11 12 11 11 11 10 9 9 8 7 6 6 4 3 3
12 9 7 6 7 6 7 8 6 4 3 6 4 3 2 3 3 5 4 5 7 4 5 6 6 6 5 4 6 14 14 13 12 12 11 11 11 10 9 8 8 7 6
11 11 8 8 7 6 7 7 7 7 4 4 4 5 2 5 1 2 6 5 6 4 5 5 7 7 6 5 8 9 12 11 14 14 14 14 14 13 12 12 11 10 9
10 10 9 8 9 5 6 6 6 4 4 7 1 2 1 4 4 2 2 4 5 7 7 6 7 7 7 6 11 12 12 12 12 17 16 16 16 15 15 14 14 13 12
9 9 8 8 8 6 7 8 6 5 4 6 5 3 1 1 2 3 3 3 2 5 7 8 8 7 9 8 7 10 16 14 13 16 19 19 18 18 17 17 16 15 15
7 8 7 7 8 8 8 8 8 9 9 5 8 4 5 4 3 3 2 3 4 4 7 7 7 8 7 8 13 17 18 17 16 17 19 20 20 20 19 19 18 18 17
7 9 10 8 7 8 7 8 9 9 10 8 9 8 7 6 3 4 3 3 4 4 4 5 8 8 8 8 10 17 19 18 18 19 20 21 20 20 21 21 21 20 20
10 10 11 10 11 10 9 8 7 8 9 10 10 9 8 8 6 4 5 4 3 3 4 7 4 8 8 9 13 18 12 20 21 20 20 21 21 21 21 21 22 22 22
7 10 12 12 11 10 11 11 9 10 9 11 11 10 9 8 7 8 7 6 6 8 6 5 5 8 9 8 13 12 13 17 21 21 21 22 22 22 22 22 22 22 21
7 10 11 12 12 11 11 12 10 10 11 10 10 11 11 10 10 8 8 8 8 10 12 5 6 6 7 8 11 13 14 19 20 23 23 24 23 23 23 23 23 22 23
8 10 11 13 13 12 13 13 13 13 13 14 12 12 15 14 10 9 8 10 9 8 12 11 6 6 6 8 7 11 11 12 12 22 25 25 25 24 23 23 23 23 24
7 10 9 11 12 13 13 13 14 14 15 14 16 14 15 10 13 13 10 13 11 11 10 17 11 5 8 8 10 10 10 10 12 17 24 25 25 25 25 24 24 24 24
8 8 11 11 12 13 14 14 15 14 15 16 16 16 17 15 15 12 12 12 11 10 11 12 14 7 7 3 6 7 8 11 9 17 18 23 25 26 26 26 26 25 25
8 8 9 12 13 14 14 15 14 14 15 15 16 15 16 16 17 16 14 14 12 12 11 11 11 12 10 6 6 6 8 7 11 9 14 15 19 25 26 26 25 27 27
7 9 10 11 12 11 10 13 14 15 16 16 16 16 17 19 20 18 11 13 14 13 11 11 12 11 10 6 9 6 10 10 8 9 8 9 9 11 14 23 22 27 29
8 9 10 11 13 11 13 17 15 14 16 16 16 17 17 16 18 20 20 23 18 13 14 12 12 14 17 14 12 12 10 5 7 10 11 14 9 12 11 12 23 29 27
9 11 13 13 14 15 15 18 20 15 15 15 16 16 15 13 15 16 19 20 21 20 20 18 17 17 16 15 13 12 13 12 13 3 8 9 9 13 12 12 23 26 28
10 11 14 17 16 14 15 19 21 16 16 17 16 16 17 18 16 15 16 18 17 18 19 17 21 21 17 14 13 14 16 16 12 9 8 9 5 11 9 12 21 26 27
10 10 12 14 15 14 9 12 7 11 12 16 15 16 17 17 17 16 17 19 18 16 13 22 25 26 27 22 15 10 10 11 12 12 8 9 10 7 4 9 10 23 26
7 6 5 7 16 10 20 19 15 4 8 9 12 14 16 17 15 16 17 18 19 18 15 15 11 19 24 24 21 19 14 12 12 11 9 11 12 5 4 6 11 10 12
Wind_Direction
152 140 129 126 130 143 138 136 138 135 123 115 111 115 114 115 113 100 100 123 120 126 135 124 126 121 124 116 121 108 110 107 104 102 93 95 94 93 85 84 79 72 62
158 144 139 138 149 166 162 119 143 141 135 131 125 122 125 119 121 126 109 119 128 127 128 134 131 135 127 124 128 122 127 121 119 121 109 109 103 98 99 93 79 72 63
164 154 155 152 171 154 136 109 106 118 118 128 126 131 134 139 136 132 129 118 110 135 138 143 146 143 135 133 140 138 133 132 137 116 128 121 116 115 118 96 87 67 63
168 160 162 176 173 148 157 137 143 129 139 146 135 153 137 134 138 140 138 131 138 140 149 127 162 162 151 147 158 170 153 161 170 149 152 149 146 154 127 103 86 86 65
178 170 176 181 168 158 160 155 134 149 152 144 145 141 150 160 166 155 168 171 178 161 168 183 166 176 182 188 183 187 178 189 189 174 186 189 172 185 165 157 112 79 73
184 178 185 181 172 163 159 167 153 117 157 159 146 126 158 208 193 189 191 190 197 190 190 201 180 199 225 195 203 195 203 198 207 202 202 204 208 217 208 199 186 180 147
189 186 186 189 179 177 179 172 142 135 75 121 99 35 358 258 234 229 214 209 212 208 201 205 202 201 232 216 215 216 213 210 218 219 216 216 235 223 229 230 229 231 240
189 187 180 187 183 183 177 178 151 135 127 185 141 132 179 309 264 224 220 221 226 205 215 216 209 212 214 219 221 226 226 222 215 221 219 221 229 230 233 237 237 236 237
188 189 175 178 175 179 184 191 178 165 150 204 220 144 137 221 161 198 232 210 215 215 218 219 219 219 216 214 222 231 238 234 230 224 228 223 228 236 235 238 241 243 244
184 190 175 176 174 166 173 189 194 171 141 186 288 221 131 147 176 289 234 225 218 217 223 222 222 221 220 218 222 224 233 235 225 223 228 230 230 233 238 235 242 244 246
180 193 188 174 181 177 169 173 185 181 200 174 188 129 210 213 103 132 240 276 234 221 219 221 222 220 219 217 221 223 224 229 225 220 230 233 237 234 238 237 238 241 246
185 192 178 183 181 182 181 186 184 191 193 198 208 200 183 178 191 167 204 223 219 246 217 208 215 224 220 220 223 222 223 223 220 221 224 232 233 237 236 238 238 239 241
194 194 185 188 189 188 186 182 186 194 195 200 195 209 219 218 170 175 177 216 238 246 259 233 220 211 217 215 222 222 221 222 221 222 223 227 231 235 237 240 241 239 240
197 186 193 201 205 191 190 185 200 208 207 204 201 208 213 221 210 193 192 172 278 271 233 241 227 221 213 209 220 217 224 222 220 221 223 227 228 230 232 236 241 242 241
186 187 194 202 206 201 198 194 204 210 206 209 213 211 217 224 212 216 218 209 222 267 264 236 232 213 218 209 219 213 217 222 218 221 220 222 225 228 229 232 236 238 240
203 184 193 204 206 206 202 201 212 215 209 218 218 213 221 226 222 214 214 226 228 235 261 207 221 219 207 217 223 213 220 221 216 218 219 222 223 225 228 229 231 233 235
217 208 200 204 211 211 209 205 213 217 217 224 224 220 225 226 231 229 224 231 226 226 247 257 229 215 208 212 217 216 221 219 224 219 220 221 220 221 223 226 228 230 231
211 225 215 214 214 213 218 213 217 218 220 225 227 225 232 230 232 230 230 233 233 225 241 253 247 222 218 213 227 218 221 225 225 221 219 221 220 220 220 221 223 226 229
222 215 231 223 219 217 219 221 219 223 227 228 230 227 230 227 234 230 229 233 234 232 229 247 254 235 219 195 222 231 220 226 229 228 217 220 220 221 221 221 222 223 227
286 218 222 232 230 221 217 219 222 226 227 231 233 233 235 230 227 232 233 236 238 238 234 234 242 248 239 222 215 219 237 225 235 224 229 224 223 226 226 225 222 223 225
263 254 228 229 237 234 221 218 221 226 228 232 234 235 235 234 229 231 226 233 237 237 237 240 241 243 233 207 218 223 237 246 241 222 226 232 216 222 228 232 234 229 227
293 282 251 240 239 236 230 220 219 227 228 229 234 235 240 236 234 229 223 231 232 232 238 238 242 241 238 233 233 236 233 201 261 189 210 244 202 226 227 219 220 226 224
287 285 272 253 246 244 227 230 223 230 235 236 237 239 241 240 237 240 233 237 241 236 235 243 245 242 244 234 233 230 225 229 236 203 196 246 194 229 222 225 221 219 221
266 271 272 253 251 249 227 228 232 231 241 244 245 247 246 244 240 234 238 242 235 235 233 239 247 255 254 250 236 226 226 235 246 239 195 242 200 233 219 224 217 218 220
266 261 263 249 248 252 336 354 297 261 249 250 251 247 245 248 249 234 242 246 247 247 231 231 242 243 246 246 238 240 232 232 239 239 196 237 233 243 208 231 225 212 216
289 312 286 34 45 81 40 25 6 261 255 264 261 255 246 250 256 238 237 244 250 254 242 251 237 243 245 249 239 234 244 236 235 249 198 213 237 175 251 193 216 210 211